Location: Newark
(47.5833°N, 8.1500°E)
Time: 07:51:29
(UTC+00:00)

Tiros 1 despin weight - Pass Details

Date: 04 November 2020
Orbit: 593 x 642 km, 48.2° (Epoch: 28 November)

Event Time Altitude Azimuth Distance (km) Brightness Sun altitude
Rises 21:15:13 0° 231° (SW) 2,893 - -50.2°
Reaches altitude 10° 21:17:36 10° 226° (SW) 1,981 - -50.5°
Maximum altitude 21:21:57 46° 153° (SSE) 826 - -51.0°
Drops below altitude 10° 21:26:15 10° 80° (E) 1,958 - -51.5°
Sets 21:28:36 0° 75° (ENE) 2,856 - -51.8°
